,,,PA_Meas_PMT16A,,PR_Meas_QMR101_102,,RH_Meas_QMH101,,SR_Meas_QMS101,,TA_Meas_QMH101,,GenWind,,GenWind,
date,time,status,PA,status,PR,status,RH,status,SR,status,TA,status,DirAvg,status,SpdAvg,
2009-09-10, 00:00:04,VALID,1000.52,VALID,0,VALID,80.5993,VALID,0,VALID,25.3193,VALID,145,VALID,1.1832,
2009-09-10, 00:01:04,VALID,1000.48,VALID,0,VALID,80.7672,VALID,0.112286,VALID,25.2802,VALID,131,VALID,1.49609,
2009-09-10, 00:02:04,VALID,1000.46,VALID,0,VALID,80.9426,VALID,0,VALID,25.2626,VALID,124,VALID,1.65313,
2009-09-10, 00:03:04,VALID,1000.45,VALID,0,VALID,81.4004,VALID,0,VALID,25.1436,VALID,130,VALID,1.26992,
2009-09-10, 00:04:04,VALID,1000.41,VALID,0,VALID,81.7285,VALID,0,VALID,25.0869,VALID,141,VALID,1.01016,
2009-09-10, 00:05:04,VALID,1000.36,VALID,0,VALID,81.8277,VALID,0,VALID,24.9874,VALID,140,VALID,0.977344,
2009-09-10, 00:06:04,VALID,1000.39,VALID,0,VALID,81.8658,VALID,0,VALID,25.0088,VALID,136,VALID,0.677734,
2009-09-10, 00:07:04,VALID,1000.34,VALID,0,VALID,81.7285,VALID,0,VALID,24.9893,VALID,138,VALID,0.869141,
2009-09-10, 00:08:04,VALID,1000.37,VALID,0,VALID,81.5072,VALID,0,VALID,24.9874,VALID,130,VALID,0.852344,
2009-09-10, 00:09:04,VALID,1000.37,VALID,0,VALID,81.4309,VALID,0,VALID,24.9874,VALID,126,VALID,0.723047,
2009-09-10, 00:10:04,VALID,1000.32,VALID,0,VALID,81.408,VALID,0,VALID,24.9679,VALID,131,VALID,0.807031,
2009-09-10, 00:11:04,VALID,1000.34,VALID,0,VALID,81.3623,VALID,0,VALID,24.9679,VALID,147,VALID,0.466797,
2009-09-10, 00:12:04,VALID,1000.32,VALID,0,VALID,81.2783,VALID,0,VALID,24.9465,VALID,147,VALID,0.495313,
2009-09-10, 00:13:04,VALID,1000.31,VALID,0,VALID,81.3089,VALID,0,VALID,24.9698,VALID,147,VALID,0.468359,
2009-09-10, 00:14:04,VALID,1000.3,VALID,0,VALID,81.2936,VALID,0,VALID,25.0107,VALID,147,VALID,0.5125,
2009-09-10, 00:15:04,VALID,1000.29,VALID,0,VALID,81.1944,VALID,0,VALID,24.9893,VALID,146,VALID,0.602734,
2009-09-10, 00:16:04,VALID,1000.27,VALID,0,VALID,80.9884,VALID,0,VALID,25.0088,VALID,143,VALID,0.763672,
2009-09-10, 00:17:04,VALID,1000.26,VALID,0,VALID,80.8206,VALID,0,VALID,25.0088,VALID,142,VALID,0.508203,
2009-09-10, 00:18:04,VALID,1000.24,VALID,0,VALID,80.7824,VALID,0,VALID,25.0284,VALID,142,VALID,0.536328,
2009-09-10, 00:19:04,VALID,1000.23,VALID,0,VALID,80.6069,VALID,0,VALID,25.0479,VALID,142,VALID,0.771484,
2009-09-10, 00:20:04,VALID,1000.21,VALID,0,VALID,80.3323,VALID,0,VALID,25.0674,VALID,133,VALID,0.922266,
2009-09-10, 00:21:04,VALID,1000.23,VALID,0,VALID,80.1797,VALID,0,VALID,25.0888,VALID,133,VALID,0.632031,
2009-09-10, 00:22:04,VALID,1000.2,VALID,0,VALID,80.2331,VALID,0,VALID,25.0869,VALID,133,VALID,0.554297,
2009-09-10, 00:23:04,VALID,1000.24,VALID,0,VALID,80.2636,VALID,0,VALID,25.0674,VALID,133,VALID,0.546094,
2009-09-10, 00:24:04,VALID,1000.23,VALID,0,VALID,80.1568,VALID,0,VALID,25.0479,VALID,135,VALID,0.673437,
2009-09-10, 00:25:04,VALID,1000.24,VALID,0,VALID,80.1339,VALID,0,VALID,25.0674,VALID,147,VALID,0.6625,
2009-09-10, 00:26:04,VALID,1000.21,VALID,0,VALID,79.966,VALID,0,VALID,25.0674,VALID,150,VALID,0.825781,
2009-09-10, 00:27:04,VALID,1000.19,VALID,0,VALID,79.8592,VALID,0,VALID,25.1083,VALID,148,VALID,0.849609,
2009-09-10, 00:28:04,VALID,1000.16,VALID,0,VALID,79.8974,VALID,0,VALID,25.126,VALID,146,VALID,0.787891,
2009-09-10, 00:29:04,VALID,1000.14,VALID,0,VALID,79.7448,VALID,0,VALID,25.1455,VALID,145,VALID,1.00547,
2009-09-10, 00:30:04,VALID,1000.15,VALID,0,VALID,79.6761,VALID,0,VALID,25.126,VALID,146,VALID,0.812109,
2009-09-10, 00:31:04,VALID,1000.13,VALID,0,VALID,79.7829,VALID,0,VALID,25.126,VALID,147,VALID,1.02344,
2009-09-10, 00:32:04,VALID,1000.15,VALID,0,VALID,79.7448,VALID,0,VALID,25.1474,VALID,143,VALID,0.770703,
2009-09-10, 00:33:04,VALID,1000.13,VALID,0,VALID,79.9203,VALID,0,VALID,25.126,VALID,141,VALID,0.886328,
2009-09-10, 00:34:04,VALID,1000.1,VALID,0,VALID,79.9966,VALID,0,VALID,25.1279,VALID,140,VALID,1.09531,
2009-09-10, 00:35:04,VALID,1000.1,VALID,0,VALID,80.0423,VALID,0,VALID,25.0674,VALID,142,VALID,1.16719,
2009-09-10, 00:36:04,VALID,1000.1,VALID,0,VALID,79.8974,VALID,0,VALID,25.0693,VALID,140,VALID,1.10586,
2009-09-10, 00:37:04,VALID,1000.07,VALID,0,VALID,79.8287,VALID,0,VALID,25.0674,VALID,143,VALID,1.03203,
2009-09-10, 00:38:04,VALID,1000.09,VALID,0,VALID,79.9966,VALID,0,VALID,25.0284,VALID,128,VALID,1.39297,
2009-09-10, 00:39:04,VALID,1000.05,VALID,0,VALID,80.1568,VALID,0,VALID,25.0088,VALID,133,VALID,0.891797,
2009-09-10, 00:40:04,VALID,1000.07,VALID,0,VALID,80.4086,VALID,0,VALID,24.9893,VALID,150,VALID,1.02539,
2009-09-10, 00:41:04,VALID,1000.07,VALID,0,VALID,80.5001,VALID,0,VALID,24.9893,VALID,163,VALID,0.835938,
2009-09-10, 00:42:04,VALID,1000.11,VALID,0,VALID,80.4238,VALID,0,VALID,24.9893,VALID,163,VALID,0.907422,
2009-09-10, 00:43:04,VALID,1000.07,VALID,0,VALID,80.3018,VALID,0,VALID,25.0284,VALID,156,VALID,0.930859,
2009-09-10, 00:44:04,VALID,1000.06,VALID,0,VALID,80.1568,VALID,0,VALID,25.0284,VALID,153,VALID,0.641016,
2009-09-10, 00:45:04,VALID,1000.06,VALID,0,VALID,80.1797,VALID,0,VALID,25.0674,VALID,160,VALID,0.773047,
2009-09-10, 00:46:04,VALID,1000.04,VALID,0,VALID,80.1721,VALID,0,VALID,25.1064,VALID,180,VALID,0.918359,
2009-09-10, 00:47:04,VALID,1000.04,VALID,0,VALID,80.1339,VALID,0,VALID,25.126,VALID,169,VALID,0.753125,
2009-09-10, 00:48:04,VALID,1000.02,VALID,0,VALID,80.1034,VALID,0,VALID,25.1669,VALID,172,VALID,0.971094,
2009-09-10, 00:49:04,VALID,999.957,VALID,0,VALID,80.0652,VALID,0,VALID,25.1455,VALID,143,VALID,0.673828,
2009-09-10, 00:50:04,VALID,999.998,VALID,0,VALID,80.1186,VALID,0,VALID,25.1455,VALID,151,VALID,0.637891,
2009-09-10, 00:51:04,VALID,999.964,VALID,0,VALID,80.1949,VALID,0,VALID,25.126,VALID,178,VALID,0.653516,
2009-09-10, 00:52:04,VALID,999.935,VALID,0,VALID,80.3094,VALID,0,VALID,25.126,VALID,178,VALID,0.699609,
2009-09-10, 00:53:04,VALID,999.894,VALID,0,VALID,80.3323,VALID,0,VALID,25.1279,VALID,174,VALID,0.687109,
2009-09-10, 00:54:04,VALID,999.93,VALID,0,VALID,80.2178,VALID,0,VALID,25.1064,VALID,167,VALID,0.691797,
2009-09-10, 00:55:04,VALID,999.897,VALID,0,VALID,80.1492,VALID,0,VALID,25.1455,VALID,171,VALID,0.414063,
2009-09-10, 00:56:04,VALID,999.9,VALID,0,VALID,80.0957,VALID,0,VALID,25.165,VALID,171,VALID,0.539844,
2009-09-10, 00:57:04,VALID,999.866,VALID,0,VALID,80.1339,VALID,0,VALID,25.165,VALID,153,VALID,0.845312,
2009-09-10, 00:58:04,VALID,999.896,VALID,0,VALID,80.3857,VALID,0,VALID,25.165,VALID,139,VALID,0.955078,
2009-09-10, 00:59:04,VALID,999.871,VALID,0,VALID,80.5001,VALID,0,VALID,25.1241,VALID,137,VALID,1.17188,
2009-09-10, 01:00:04,VALID,999.863,VALID,0,VALID,80.5993,VALID,0,VALID,25.085,VALID,137,VALID,0.832422,
2009-09-10, 01:01:04,VALID,999.853,VALID,0,VALID,80.9198,VALID,0,VALID,25.0655,VALID,135,VALID,1.04609,
2009-09-10, 01:02:04,VALID,999.862,VALID,0,VALID,81.1868,VALID,0,VALID,24.9874,VALID,130,VALID,1.04492,
2009-09-10, 01:03:04,VALID,999.854,VALID,0,VALID,81.5835,VALID,0,VALID,24.9093,VALID,128,VALID,0.897266,
2009-09-10, 01:04:04,VALID,999.839,VALID,0,VALID,81.8506,VALID,0,VALID,24.8703,VALID,124,VALID,0.925781,
2009-09-10, 01:05:04,VALID,999.789,VALID,0,VALID,82.0642,VALID,0,VALID,24.8117,VALID,118,VALID,0.536719,
2009-09-10, 01:06:04,VALID,999.779,VALID,0,VALID,82.3236,VALID,0,VALID,24.7727,VALID,118,VALID,0.402344,
2009-09-10, 01:07:04,VALID,999.832,VALID,0,VALID,82.4915,VALID,0,VALID,24.7142,VALID,118,VALID,0.701563,
2009-09-10, 01:08:04,VALID,999.813,VALID,0,VALID,82.934,VALID,0,VALID,24.6751,VALID,118,VALID,0.846875,
2009-09-10, 01:09:04,VALID,999.803,VALID,0,VALID,83.1705,VALID,0,VALID,24.6361,VALID,118,VALID,0.571094,
2009-09-10, 01:10:04,VALID,999.855,VALID,0,VALID,83.2697,VALID,0,VALID,24.6166,VALID,118,VALID,0.506641,
2009-09-10, 01:11:04,VALID,999.828,VALID,0,VALID,83.407,VALID,0.112286,VALID,24.5971,VALID,119,VALID,0.55625,
2009-09-10, 01:12:04,VALID,999.835,VALID,0,VALID,83.3841,VALID,0,VALID,24.558,VALID,115,VALID,0.920703,
2009-09-10, 01:13:04,VALID,999.848,VALID,0,VALID,83.3078,VALID,0,VALID,24.5404,VALID,117,VALID,0.681641,
2009-09-10, 01:14:04,VALID,999.88,VALID,0,VALID,83.1095,VALID,0,VALID,24.5599,VALID,126,VALID,0.840234,
2009-09-10, 01:15:04,VALID,999.892,VALID,0,VALID,82.8882,VALID,0,VALID,24.5599,VALID,135,VALID,1.01133,
2009-09-10, 01:16:04,VALID,999.896,VALID,0,VALID,82.522,VALID,0,VALID,24.5794,VALID,136,VALID,0.880469,
2009-09-10, 01:17:04,VALID,999.895,VALID,0,VALID,82.3541,VALID,0,VALID,24.6398,VALID,130,VALID,0.801172,
2009-09-10, 01:18:04,VALID,999.887,VALID,0,VALID,82.1786,VALID,0,VALID,24.638,VALID,130,VALID,0.635938,
2009-09-10, 01:19:04,VALID,999.898,VALID,0,VALID,82.11,VALID,0,VALID,24.638,VALID,129,VALID,0.767578,
2009-09-10, 01:20:04,VALID,999.9,VALID,0,VALID,81.9803,VALID,0,VALID,24.6575,VALID,121,VALID,0.854688,
2009-09-10, 01:21:04,VALID,999.863,VALID,0,VALID,81.7361,VALID,0,VALID,24.6575,VALID,115,VALID,0.980859,
2009-09-10, 01:22:04,VALID,999.927,VALID,0,VALID,82.0489,VALID,0,VALID,24.6984,VALID,113,VALID,0.705859,
2009-09-10, 01:23:04,VALID,999.95,VALID,0,VALID,82.2855,VALID,0,VALID,24.677,VALID,102,VALID,0.882422,
2009-09-10, 01:24:04,VALID,999.902,VALID,0,VALID,82.5372,VALID,0,VALID,24.677,VALID,100,VALID,0.846094,
2009-09-10, 01:25:04,VALID,999.906,VALID,0,VALID,82.7661,VALID,0,VALID,24.677,VALID,96,VALID,0.801562,
2009-09-10, 01:26:04,VALID,999.933,VALID,0,VALID,82.7432,VALID,0,VALID,24.638,VALID,96,VALID,0.551562,
2009-09-10, 01:27:04,VALID,999.917,VALID,0,VALID,83.0103,VALID,0,VALID,24.5989,VALID,96,VALID,0.517187,
2009-09-10, 01:28:04,VALID,999.869,VALID,0,VALID,82.934,VALID,0,VALID,24.5794,VALID,65,VALID,0.824219,
2009-09-10, 01:29:04,VALID,999.891,VALID,0,VALID,82.8958,VALID,0,VALID,24.5599,VALID,65,VALID,0.398047,
2009-09-10, 01:30:04,VALID,999.904,VALID,0,VALID,82.6822,VALID,0,VALID,24.5813,VALID,65,VALID,0.553906,
2009-09-10, 01:31:04,VALID,999.889,VALID,0,VALID,83.2468,VALID,0,VALID,24.5794,VALID,46,VALID,1.10547,
2009-09-10, 01:32:04,VALID,999.885,VALID,0,VALID,83.9182,VALID,0,VALID,24.5404,VALID,37,VALID,0.873047,
2009-09-10, 01:33:04,VALID,999.855,VALID,0,VALID,84.0937,VALID,0,VALID,24.4428,VALID,37,VALID,1.13828,
2009-09-10, 01:34:04,VALID,999.864,VALID,0,VALID,84.5362,VALID,0,VALID,24.3062,VALID,33,VALID,1.21172,
2009-09-10, 01:35:04,VALID,999.814,VALID,0,VALID,85.0932,VALID,0,VALID,24.1696,VALID,36,VALID,1.30234,
2009-09-10, 01:36:04,VALID,999.809,VALID,0,VALID,85.612,VALID,0,VALID,24.0525,VALID,36,VALID,1.1043,
2009-09-10, 01:37:04,VALID,999.785,VALID,0,VALID,85.6806,VALID,0,VALID,23.9939,VALID,34,VALID,1.24844,
2009-09-10, 01:38:04,VALID,999.776,VALID,0,VALID,85.734,VALID,0,VALID,23.9921,VALID,34,VALID,1.40781,
2009-09-10, 01:39:04,VALID,999.736,VALID,0,VALID,85.6501,VALID,0,VALID,24.0134,VALID,35,VALID,1.12969,
2009-09-10, 01:40:04,VALID,999.745,VALID,0,VALID,85.3755,VALID,0,VALID,24.0525,VALID,35,VALID,0.900781,
2009-09-10, 01:41:04,VALID,999.746,VALID,0,VALID,85.2381,VALID,0,VALID,24.111,VALID,37,VALID,0.917578,
2009-09-10, 01:42:04,VALID,999.729,VALID,0,VALID,85.0703,VALID,0,VALID,24.111,VALID,50,VALID,0.869531,
2009-09-10, 01:43:04,VALID,999.719,VALID,0,VALID,84.9329,VALID,0,VALID,24.111,VALID,64,VALID,0.840234,
2009-09-10, 01:44:04,VALID,999.708,VALID,0,VALID,85.2229,VALID,0,VALID,24.0525,VALID,69,VALID,0.627344,
2009-09-10, 01:45:04,VALID,999.684,VALID,0,VALID,85.406,VALID,0,VALID,23.9939,VALID,78,VALID,0.871484,
2009-09-10, 01:46:04,VALID,999.675,VALID,0,VALID,85.734,VALID,0,VALID,23.9354,VALID,76,VALID,0.614062,
2009-09-10, 01:47:04,VALID,999.652,VALID,0,VALID,85.8409,VALID,0,VALID,23.9159,VALID,76,VALID,0.330469,
2009-09-10, 01:48:04,VALID,999.649,VALID,0,VALID,85.8866,VALID,0,VALID,23.8768,VALID,76,VALID,0.0425781,
2009-09-10, 01:49:04,VALID,999.647,VALID,0,VALID,85.9858,VALID,0,VALID,23.8573,VALID,76,VALID,0,
2009-09-10, 01:50:04,VALID,999.634,VALID,0,VALID,86.0469,VALID,0,VALID,23.8378,VALID,76,VALID,0,
2009-09-10, 01:51:04,VALID,999.627,VALID,0,VALID,86.0926,VALID,0,VALID,23.8183,VALID,76,VALID,0.0882813,
2009-09-10, 01:52:04,VALID,999.587,VALID,0,VALID,86.1689,VALID,0,VALID,23.8183,VALID,76,VALID,0,
2009-09-10, 01:53:04,VALID,999.589,VALID,0,VALID,86.2452,VALID,0,VALID,23.7793,VALID,76,VALID,0.0175781,
2009-09-10, 01:54:04,VALID,999.531,VALID,0,VALID,86.3292,VALID,0,VALID,23.7811,VALID,76,VALID,0,
2009-09-10, 01:55:04,VALID,999.539,VALID,0,VALID,86.4589,VALID,0,VALID,23.7402,VALID,76,VALID,0.0078125,
2009-09-10, 01:56:04,VALID,999.526,VALID,0,VALID,86.5504,VALID,0,VALID,23.7207,VALID,76,VALID,0.185156,
2009-09-10, 01:57:04,VALID,999.538,VALID,0,VALID,86.6115,VALID,0,VALID,23.7012,VALID,76,VALID,0.321484,
2009-09-10, 01:58:04,VALID,999.538,VALID,0,VALID,86.8861,VALID,0,VALID,23.6817,VALID,76,VALID,0.369141,
2009-09-10, 01:59:04,VALID,999.521,VALID,0,VALID,87.0769,VALID,0,VALID,23.6817,VALID,76,VALID,0.518359,
2009-09-10, 02:00:04,VALID,999.537,VALID,0,VALID,87.1074,VALID,0,VALID,23.6622,VALID,72,VALID,0.567969,
2009-09-10, 02:01:04,VALID,999.509,VALID,0,VALID,87.3363,VALID,0,VALID,23.6622,VALID,47,VALID,0.929688,
2009-09-10, 02:02:04,VALID,999.517,VALID,0,VALID,87.5346,VALID,0,VALID,23.6817,VALID,44,VALID,1.24453,
2009-09-10, 02:03:04,VALID,999.532,VALID,0,VALID,87.4583,VALID,0,VALID,23.7012,VALID,44,VALID,1.28086,
2009-09-10, 02:04:04,VALID,999.527,VALID,0,VALID,87.5499,VALID,0,VALID,23.7012,VALID,44,VALID,1.41719,
2009-09-10, 02:05:04,VALID,999.554,VALID,0,VALID,87.115,VALID,0,VALID,23.703,VALID,42,VALID,1.37109,
2009-09-10, 02:06:04,VALID,999.577,VALID,0,VALID,86.7717,VALID,0,VALID,23.6427,VALID,39,VALID,0.855859,
2009-09-10, 02:07:04,VALID,999.549,VALID,0,VALID,86.9395,VALID,0,VALID,23.5646,VALID,40,VALID,0.568359,
2009-09-10, 02:08:04,VALID,999.567,VALID,0,VALID,87.3286,VALID,0,VALID,23.4866,VALID,38,VALID,0.624609,
2009-09-10, 02:09:04,VALID,999.552,VALID,0,VALID,87.6186,VALID,0,VALID,23.4475,VALID,38,VALID,0.0988281,
2009-09-10, 02:10:04,VALID,999.553,VALID,0,VALID,88.0153,VALID,0,VALID,23.4085,VALID,38,VALID,0.304688,
2009-09-10, 02:11:04,VALID,999.546,VALID,0,VALID,88.2137,VALID,0,VALID,23.3695,VALID,42,VALID,0.645703,
2009-09-10, 02:12:04,VALID,999.541,VALID,0,VALID,88.3434,VALID,0,VALID,23.35,VALID,48,VALID,0.351953,
2009-09-10, 02:13:04,VALID,999.533,VALID,0,VALID,88.3968,VALID,0,VALID,23.311,VALID,48,VALID,0.151172,
2009-09-10, 02:14:04,VALID,999.54,VALID,0,VALID,88.557,VALID,0,VALID,23.2915,VALID,48,VALID,0.336328,
2009-09-10, 02:15:04,VALID,999.511,VALID,0,VALID,88.6486,VALID,0,VALID,23.2719,VALID,48,VALID,0.279297,
2009-09-10, 02:16:04,VALID,999.497,VALID,0,VALID,88.618,VALID,0,VALID,23.2329,VALID,48,VALID,0.105469,
2009-09-10, 02:17:04,VALID,999.516,VALID,0,VALID,88.7859,VALID,0,VALID,23.2134,VALID,48,VALID,0.263672,
2009-09-10, 02:18:04,VALID,999.46,VALID,0,VALID,89.03,VALID,0,VALID,23.1939,VALID,28,VALID,0.533203,
2009-09-10, 02:19:04,VALID,999.47,VALID,0,VALID,89.2055,VALID,0,VALID,23.2134,VALID,12,VALID,0.611719,
2009-09-10, 02:20:04,VALID,999.445,VALID,0,VALID,89.1521,VALID,0,VALID,23.2134,VALID,12,VALID,0.515625,
2009-09-10, 02:21:04,VALID,999.44,VALID,0,VALID,89.3047,VALID,0,VALID,23.2134,VALID,6,VALID,0.829687,
2009-09-10, 02:22:04,VALID,999.418,VALID,0,VALID,89.2894,VALID,0,VALID,23.2329,VALID,6,VALID,0.925,
2009-09-10, 02:23:04,VALID,999.479,VALID,0,VALID,89.1368,VALID,0,VALID,23.2329,VALID,4,VALID,0.260156,
2009-09-10, 02:24:04,VALID,999.48,VALID,0,VALID,89.2818,VALID,0,VALID,23.2329,VALID,250,VALID,0.252734,
2009-09-10, 02:25:04,VALID,999.429,VALID,0,VALID,89.3734,VALID,0,VALID,23.2329,VALID,250,VALID,0.142969,
2009-09-10, 02:26:04,VALID,999.438,VALID,0,VALID,89.3505,VALID,0,VALID,23.2329,VALID,250,VALID,0.364844,
2009-09-10, 02:27:04,VALID,999.438,VALID,0,VALID,89.3734,VALID,0,VALID,23.2134,VALID,250,VALID,0.306641,
2009-09-10, 02:28:04,VALID,999.423,VALID,0,VALID,89.2666,VALID,0,VALID,23.1939,VALID,310,VALID,0.521094,
2009-09-10, 02:29:04,VALID,999.403,VALID,0,VALID,89.5489,VALID,0,VALID,23.1744,VALID,342,VALID,0.691406,
2009-09-10, 02:30:04,VALID,999.397,VALID,0,VALID,89.5031,VALID,0,VALID,23.1744,VALID,342,VALID,0.474609,
2009-09-10, 02:31:04,VALID,999.414,VALID,0,VALID,89.6328,VALID,0,VALID,23.1354,VALID,342,VALID,0.201562,
2009-09-10, 02:32:04,VALID,999.419,VALID,0,VALID,89.7854,VALID,0,VALID,23.1549,VALID,342,VALID,0.402344,
2009-09-10, 02:33:04,VALID,999.415,VALID,0,VALID,89.7014,VALID,0,VALID,23.1354,VALID,26,VALID,0.651172,
2009-09-10, 02:34:04,VALID,999.408,VALID,0,VALID,89.6633,VALID,0,VALID,23.1549,VALID,32,VALID,0.763672,
2009-09-10, 02:35:04,VALID,999.439,VALID,0,VALID,89.4268,VALID,0,VALID,23.2134,VALID,32,VALID,0.888281,
2009-09-10, 02:36:04,VALID,999.466,VALID,0,VALID,88.5951,VALID,0,VALID,23.2719,VALID,32,VALID,0.79375,
2009-09-10, 02:37:04,VALID,999.499,VALID,0,VALID,88.6333,VALID,0,VALID,23.3518,VALID,57,VALID,0.718359,
2009-09-10, 02:38:04,VALID,999.48,VALID,0,VALID,88.4044,VALID,0,VALID,23.3695,VALID,44,VALID,0.902344,
2009-09-10, 02:39:04,VALID,999.48,VALID,0,VALID,87.8322,VALID,0,VALID,23.4085,VALID,38,VALID,0.621875,
2009-09-10, 02:40:04,VALID,999.512,VALID,0,VALID,87.4278,VALID,0,VALID,23.4671,VALID,37,VALID,0.488672,
2009-09-10, 02:41:04,VALID,999.506,VALID,0,VALID,87.1074,VALID,0,VALID,23.4671,VALID,48,VALID,0.375,
2009-09-10, 02:42:04,VALID,999.499,VALID,0,VALID,86.642,VALID,0,VALID,23.5061,VALID,87,VALID,0.733984,
2009-09-10, 02:43:04,VALID,999.51,VALID,0,VALID,86.6267,VALID,0,VALID,23.5451,VALID,62,VALID,0.746094,
2009-09-10, 02:44:04,VALID,999.515,VALID,0,VALID,86.3444,VALID,0,VALID,23.5451,VALID,73,VALID,1.01016,
2009-09-10, 02:45:04,VALID,999.477,VALID,0,VALID,86.2223,VALID,0,VALID,23.5646,VALID,47,VALID,0.674219,
2009-09-10, 02:46:04,VALID,999.477,VALID,0,VALID,86.436,VALID,0,VALID,23.5664,VALID,47,VALID,0.621094,
2009-09-10, 02:47:04,VALID,999.506,VALID,0,VALID,86.4207,VALID,0,VALID,23.4866,VALID,31,VALID,0.507813,
2009-09-10, 02:48:04,VALID,999.523,VALID,0,VALID,86.4436,VALID,0,VALID,23.4475,VALID,31,VALID,0,
2009-09-10, 02:49:04,VALID,999.554,VALID,0,VALID,86.5962,VALID,0,VALID,23.4085,VALID,31,VALID,0.205469,
2009-09-10, 02:50:04,VALID,999.497,VALID,0,VALID,86.8861,VALID,0,VALID,23.4085,VALID,31,VALID,0.430078,
2009-09-10, 02:51:04,VALID,999.529,VALID,0,VALID,87.0692,VALID,0,VALID,23.3695,VALID,31,VALID,0.698047,
2009-09-10, 02:52:04,VALID,999.557,VALID,0,VALID,87.321,VALID,0,VALID,23.2915,VALID,29,VALID,0.456641,
2009-09-10, 02:53:04,VALID,999.513,VALID,0,VALID,87.8017,VALID,0,VALID,23.2719,VALID,26,VALID,0.355078,
2009-09-10, 02:54:04,VALID,999.531,VALID,0,VALID,87.4278,VALID,0,VALID,23.2329,VALID,26,VALID,0.153516,
2009-09-10, 02:55:04,VALID,999.536,VALID,0,VALID,87.794,VALID,0,VALID,23.1549,VALID,26,VALID,0.470313,
2009-09-10, 02:56:04,VALID,999.599,VALID,0,VALID,87.9237,VALID,0,VALID,23.1159,VALID,26,VALID,0.00351562,
2009-09-10, 02:57:04,VALID,999.578,VALID,0,VALID,88.3281,VALID,0,VALID,23.0769,VALID,26,VALID,0.199609,
2009-09-10, 02:58:04,VALID,999.589,VALID,0,VALID,88.5189,VALID,0,VALID,23.0786,VALID,26,VALID,0.309766,
2009-09-10, 02:59:04,VALID,999.597,VALID,0,VALID,88.7859,VALID,0,VALID,23.0573,VALID,26,VALID,0.187109,
2009-09-10, 03:00:04,VALID,999.584,VALID,0,VALID,89.0224,VALID,0,VALID,23.0573,VALID,24,VALID,0.451953,
2009-09-10, 03:01:04,VALID,999.596,VALID,0,VALID,88.9232,VALID,0,VALID,23.0769,VALID,23,VALID,0.596875,
2009-09-10, 03:02:04,VALID,999.607,VALID,0,VALID,88.6257,VALID,0,VALID,23.0769,VALID,23,VALID,0.286328,
2009-09-10, 03:03:04,VALID,999.611,VALID,0,VALID,88.7172,VALID,0,VALID,23.0378,VALID,23,VALID,0.191016,
2009-09-10, 03:04:04,VALID,999.602,VALID,0,VALID,88.8927,VALID,0,VALID,23.0378,VALID,23,VALID,0.255078,
2009-09-10, 03:05:04,VALID,999.617,VALID,0,VALID,88.2442,VALID,0,VALID,22.9988,VALID,23,VALID,0.513281,
2009-09-10, 03:06:04,VALID,999.65,VALID,0,VALID,89.03,VALID,0,VALID,22.9013,VALID,4,VALID,0.793359,
2009-09-10, 03:07:04,VALID,999.645,VALID,0,VALID,89.114,VALID,0,VALID,22.9013,VALID,4,VALID,0.612109,
2009-09-10, 03:08:04,VALID,999.67,VALID,0,VALID,89.6328,VALID,0,VALID,22.9208,VALID,4,VALID,0.487109,
2009-09-10, 03:09:04,VALID,999.64,VALID,0,VALID,89.6938,VALID,0,VALID,22.9208,VALID,2,VALID,0.646875,
2009-09-10, 03:10:04,VALID,999.657,VALID,0,VALID,89.4802,VALID,0,VALID,22.9615,VALID,2,VALID,0.227344,
2009-09-10, 03:11:04,VALID,999.642,VALID,0,VALID,89.8006,VALID,0,VALID,22.942,VALID,2,VALID,0.369141,
2009-09-10, 03:12:04,VALID,999.638,VALID,0,VALID,89.8083,VALID,0,VALID,22.9811,VALID,2,VALID,0.367578,
2009-09-10, 03:13:04,VALID,999.658,VALID,0,VALID,89.6709,VALID,0,VALID,23.0006,VALID,2,VALID,0.258594,
2009-09-10, 03:14:04,VALID,999.674,VALID,0,VALID,89.5183,VALID,0,VALID,22.9988,VALID,2,VALID,0.0761719,
2009-09-10, 03:15:04,VALID,999.655,VALID,0,VALID,89.5489,VALID,0,VALID,23.0006,VALID,2,VALID,0.0605469,
2009-09-10, 03:16:04,VALID,999.676,VALID,0,VALID,89.5107,VALID,0,VALID,22.9988,VALID,2,VALID,0.491797,
2009-09-10, 03:17:04,VALID,999.686,VALID,0,VALID,89.3505,VALID,0,VALID,23.0183,VALID,2,VALID,0.146484,
2009-09-10, 03:18:04,VALID,999.682,VALID,0,VALID,88.9995,VALID,0,VALID,22.9598,VALID,2,VALID,0.351563,
2009-09-10, 03:19:04,VALID,999.694,VALID,0,VALID,89.3428,VALID,0,VALID,22.9811,VALID,2,VALID,0.370703,
2009-09-10, 03:20:04,VALID,999.705,VALID,0,VALID,88.8317,VALID,0,VALID,22.9793,VALID,78,VALID,0.650391,
2009-09-10, 03:21:04,VALID,999.714,VALID,0,VALID,88.3968,VALID,0,VALID,23.0378,VALID,81,VALID,0.944141,
2009-09-10, 03:22:04,VALID,999.715,VALID,0,VALID,87.7711,VALID,0,VALID,23.1176,VALID,65,VALID,0.859766,
2009-09-10, 03:23:04,VALID,999.737,VALID,0,VALID,87.3439,VALID,0,VALID,23.1159,VALID,64,VALID,0.910156,
2009-09-10, 03:24:04,VALID,999.697,VALID,0,VALID,87.4736,VALID,0,VALID,23.1354,VALID,64,VALID,0.845312,
2009-09-10, 03:25:04,VALID,999.702,VALID,0,VALID,86.9548,VALID,0,VALID,23.1726,VALID,64,VALID,0.451953,
2009-09-10, 03:26:04,VALID,999.697,VALID,0,VALID,86.4131,VALID,0,VALID,23.2134,VALID,64,VALID,0.186719,
2009-09-10, 03:27:04,VALID,999.694,VALID,0,VALID,86.5886,VALID,0,VALID,23.1939,VALID,64,VALID,0.123438,
2009-09-10, 03:28:04,VALID,999.706,VALID,0,VALID,86.8022,VALID,0,VALID,23.1744,VALID,64,VALID,0.241406,
2009-09-10, 03:29:04,VALID,999.682,VALID,0,VALID,86.97,VALID,0,VALID,23.1354,VALID,64,VALID,0.284766,
2009-09-10, 03:30:04,VALID,999.722,VALID,0,VALID,87.2752,VALID,0,VALID,23.0769,VALID,64,VALID,0.232422,
2009-09-10, 03:31:04,VALID,999.716,VALID,0,VALID,87.5117,VALID,0,VALID,23.0981,VALID,64,VALID,0.189844,
2009-09-10, 03:32:04,VALID,999.728,VALID,0,VALID,87.7711,VALID,0,VALID,23.0981,VALID,64,VALID,0.248828,
2009-09-10, 03:33:04,VALID,999.736,VALID,0,VALID,87.7711,VALID,0,VALID,23.0769,VALID,64,VALID,0,
2009-09-10, 03:34:04,VALID,999.728,VALID,0,VALID,87.8474,VALID,0,VALID,23.0981,VALID,64,VALID,0.102734,
2009-09-10, 03:35:04,VALID,999.763,VALID,0,VALID,88.0916,VALID,0,VALID,23.0573,VALID,64,VALID,0.289063,
2009-09-10, 03:36:04,VALID,999.739,VALID,0,VALID,87.8932,VALID,0,VALID,23.0573,VALID,64,VALID,0.258594,
2009-09-10, 03:37:04,VALID,999.753,VALID,0,VALID,87.8093,VALID,0,VALID,23.0201,VALID,64,VALID,0.287891,
2009-09-10, 03:38:04,VALID,999.739,VALID,0,VALID,87.6796,VALID,0,VALID,22.9208,VALID,64,VALID,0.398438,
2009-09-10, 03:39:04,VALID,999.685,VALID,0,VALID,88.1603,VALID,0,VALID,22.864,VALID,64,VALID,0.21875,
2009-09-10, 03:40:04,VALID,999.693,VALID,0,VALID,88.8469,VALID,0,VALID,22.8037,VALID,64,VALID,0.105078,
2009-09-10, 03:41:04,VALID,999.71,VALID,0,VALID,88.9232,VALID,0,VALID,22.7842,VALID,64,VALID,0.276172,
2009-09-10, 03:42:04,VALID,999.695,VALID,0,VALID,89.2208,VALID,0,VALID,22.7647,VALID,64,VALID,0.30625,
2009-09-10, 03:43:04,VALID,999.684,VALID,0,VALID,89.2971,VALID,0,VALID,22.7647,VALID,64,VALID,0.367969,
2009-09-10, 03:44:04,VALID,999.743,VALID,0,VALID,89.2818,VALID,0,VALID,22.7647,VALID,66,VALID,0.827344,
2009-09-10, 03:45:04,VALID,999.745,VALID,0,VALID,89.8464,VALID,0,VALID,22.825,VALID,76,VALID,0.681641,
2009-09-10, 03:46:04,VALID,999.702,VALID,0,VALID,89.6404,VALID,0,VALID,22.8818,VALID,76,VALID,0.399609,